Skip Page Navigation
NASA JPL Caltech
NASA Logo - Jet Propulsion Laboratory + View the NASA Portal
+ Center for Near-Earth Object Studies
JPL Home Earth Solar System Stars & Galaxies Technology
JPL Solar System Dynamics
BODIES ORBITS EPHEMERIDES TOOLS PHYSICAL DATA DISCOVERY FAQ SITE MAP
JPL Small-Body Database Browser
Search: [ help ]  
312306 (2008 CQ62)
Classification: Main-belt Asteroid          SPK-ID: 2312306
Ephemeris | Orbit Diagram | Orbital Elements | Mission Design | Physical Parameters | Discovery Circumstances ]

[ show orbit diagram ]
Orbital Elements at Epoch 2459000.5 (2020-May-31.0) TDB
Reference: JPL 9 (heliocentric ecliptic J2000)
 Element Value Uncertainty (1-sigma)   Units 
e .1159843654144234 8.863e-08  
a 2.614753744311884 2.6919e-08 au
q 2.311483190562882 2.2943e-07 au
i 6.726746395010553 6.6472e-06 deg
node 125.7158894889272 7.8179e-05 deg
peri 97.54979955021216 8.6542e-05 deg
M 256.4726988090409 3.3169e-05 deg
tp 2459444.616602903545
(2021-Aug-18.11660290)
0.00014314 TDB
period 1544.346034389221
4.23
2.3849e-05
6.53e-08
d
yr
n .2331083785522056 3.5998e-09 deg/d
Q 2.918024298060884 3.0041e-08 au
  Orbit Determination Parameters
   # obs. used (total)      115  
   data-arc span      8131 days (22.26 yr)  
   first obs. used      1996-06-11  
   last obs. used      2018-09-15  
   planetary ephem.      DE431  
   SB-pert. ephem.      SB431-N16  
   condition code      0  
   norm. resid. RMS      .5715  
   source      ORB  
   producer      Otto Matic  
   solution date      2018-Oct-03 12:45:17  

Additional Information
 Earth MOID = 1.3144 au 
 Jupiter MOID = 2.08838 au 
 T_jup = 3.389 
[ show covariance matrix ]

Ephemeris | Orbit Diagram | Orbital Elements | Mission Design | Physical Parameters | Discovery Circumstances ]

Physical Parameter Table
Parameter Symbol Value Units Sigma Reference Notes
absolute magnitude H 16.9   n/a MPO460289  

312306 (2008 CQ62)          Discovered 2008-Feb-08 by CSS at Catalina
Reference: 20120109/Numbers.arcLast Updated: 2012-01-11

Alternate Designations
 2008 CQ62 = 2005 NY86 
Ephemeris | Orbit Diagram | Orbital Elements | Mission Design | Physical Parameters | Discovery Circumstances ]
ABOUT SSD CREDITS/AWARDS PRIVACY/COPYRIGHT GLOSSARY LINKS
FirstGov 2020-Aug-10 18:45 UT
(server date/time)  
NASA Home Page
Site Manager:   Ryan S. Park
Webmaster  Alan B. Chamberlin